Weather Roundup
Issued by NWS Springfield, MO

Home | Current Version | Previous Version | Graphics & Text | Print | Product List | Glossary On
Versions: 1 2 3 4 5 6 7 8 9 10 11 12 13 14 15 16 17 18 19 20 21 22 23 24 25 26 27 28 29 30 31 32 33 34 35 36 37 38 39 40 41 42 43 44 45 46 47 48 49 50
000
NZUS99 KSGF 201407
HRRSGF

HOURLY WEATHER
NATIONAL WEATHER SERVICE SPRINGFIELD MO
800 AM CST TUE FEB 20 2018

......SGF CWA......

CITY           SKY/WX    TMP DP  RH WIND       PRES   REMARKS
SPRINGFIELD    CLOUDY    65  62  90 S15       29.86R
JOPLIN         CLOUDY    69  64  84 S25G33    29.79R
WEST PLAINS    RAIN      64  62  93 S18G30    29.97S FOG
ROLLA          CLOUDY    64  60  87 S22G35    29.90R
OSAGE BEACH    CLOUDY    67  61  81 S15G24    29.86R
BRANSON        LGT RAIN  64  64 100 S12G21    29.92R

......SURROUNDING SGF CWA......

CITY           SKY/WX    TMP DP  RH WIND       PRES   REMARKS
CHANUTE        MIX PCPN  32  31  96 NE7G20    29.89F WCI  26
PARSONS        FOG       32  32 100 NE9G21    29.87R VSB 1   WCI  24
COFFEYVILLE    LGT RAIN  33  32  96 NE13      29.87R WCI  24
EMPORIA        FRZ RAIN  28  26  92 N18G26    29.92R FOG     WCI  15
GROVE OK       PTSUNNY   70  63  78 S23G36    29.80R
ROGERS AR      CLOUDY    68  61  78 S21G35    29.89R
SILOAM SPRINGS TSTM      65  62  90 W26G35    29.90R FOG
HARRISON AR    LGT RAIN  64  63  96 S12G21    29.94R
NEAR YELLVILLE LGT RAIN  66  63  90 S13       29.96R

......KANSAS AND MISSOURI......

CITY           SKY/WX    TMP DP  RH WIND       PRES   REMARKS
KANSAS CTY INT SLEET     28  27  93 NW10G21   29.99R FOG     WCI  19
DOWNTOWN KC    MIX PCPN  31  27  85 NW17G29   29.98R WCI  19
COLUMBIA       PTSUNNY   67  60  78 S16G23    29.82S
SEDALIA        LGT RAIN  39  39 100 NW8       29.86R FOG     WCI  33
ST JOSEPH      CLOUDY    27  27 100 W10       30.01R FOG     WCI  17
ST LOUIS       CLOUDY    68  59  73 S17G31    29.91R
SPIRIT OF STL  CLOUDY    68  59  73 S13G23    29.89R
KIRKSVILLE     CLOUDY    34  34 100 N6        29.85R WCI  29
WICHITA        CLOUDY    23  20  88 N25G33    29.97R WCI   7
TOPEKA         FRZ RAIN  29  28  96 NW10      29.99R FOG     WCI  20
OLATHE         FRZ RAIN  28  27  96 N16G32    29.90R FOG     WCI  16

......TENNESSEE......

CITY           SKY/WX    TMP DP  RH WIND       PRES   REMARKS
MEMPHIS        FAIR      67  61  81 S17       30.13R
NASHVILLE      PTSUNNY   67  57  70 S13       30.23R

......ARKANSAS.......

CITY           SKY/WX    TMP DP  RH WIND       PRES   REMARKS
FAYETTEVILLE   HVY RAIN  65  64  97 S15G24    29.91R VSB 1
FT SMITH       CLOUDY    69  64  84 S13G22    29.91R
LITTLE ROCK    CLOUDY    67  63  87 S13       30.07R

......OKLAHOMA.......

CITY           SKY/WX    TMP DP  RH WIND       PRES   REMARKS
TULSA          CLOUDY    70  62  76 SW8G18    29.81R
PONCA CITY     CLOUDY    32  30  92 NW10G22   29.94R FOG     WCI  24
MCALESTER      CLOUDY    66  63  90 S15G33    29.87R
OKLAHOMA CITY  TSTM      34  33  96 N32G39    29.89R FOG     WCI  20

......IOWA............

CITY           SKY/WX    TMP DP  RH WIND       PRES   REMARKS
DES MOINES     FRZ RAIN  28  25  88 NW14      29.91R FOG     WCI  17
QUAD CITIES    CLOUDY    38  36  92 W8        29.85R WCI  32

......ILLINOIS........

CITY           SKY/WX    TMP DP  RH WIND       PRES   REMARKS
QUINCY         CLOUDY    62  58  86 S10       29.82R
CHICAGO        CLOUDY    59  56  89 SW9       29.85S




USA.gov is the U.S. government's official web portal to all federal, state and local government web resources and services.